| time (UTC) | temp F | wind direction | speed MPH | gust MPH | rain 1hr in | rain 24hr in | rain mn in | humidity % | barometer mb |
| 20260504044619 | 39 | 28 | 5.0 | 14.0 | 0.01 | 0.75 | 0.02 | 96 | 975.1 |
| 20260504043057 | 39 | 89 | 6.0 | 17.0 | 0.02 | 0.75 | 0.02 | 96 | 975.7 |
| 20260504041556 | 39 | 99 | 7.0 | 21.0 | 0.01 | 0.74 | 0.01 | 95 | 976.4 |
| 20260504040124 | 39 | 118 | 9.0 | 19.0 | 0.01 | 0.74 | 0.01 | 95 | 977.2 |
| 20260504034614 | 40 | 87 | 7.0 | 20.0 | 0.01 | 0.74 | 0.01 | 95 | 978.3 |
| 20260504033059 | 40 | 83 | 9.0 | 20.0 | 0.00 | 0.73 | 0.00 | 95 | 978.9 |
| 20260504031555 | 40 | 97 | 8.0 | 24.0 | 0.01 | 0.73 | 0.00 | 96 | 979.3 |
| 20260504030059 | 41 | 102 | 8.0 | 18.0 | 0.01 | 0.73 | 0.00 | 96 | 980.0 |
| 20260504024600 | 41 | 78 | 6.0 | 16.0 | 0.01 | 0.73 | 0.73 | 97 | 980.9 |
| 20260504023056 | 41 | 85 | 7.0 | 18.0 | 0.02 | 0.73 | 0.73 | 98 | 981.2 |
| 20260504021556 | 40 | 79 | 7.0 | 18.0 | 0.02 | 0.72 | 0.72 | 98 | 982.0 |
| 20260504020056 | 39 | 32 | 8.0 | 24.0 | 0.03 | 0.72 | 0.72 | 97 | 982.5 |
| 20260504014559 | 39 | 28 | 19.0 | 31.0 | 0.06 | 0.72 | 0.72 | 97 | 983.2 |
| 20260504013116 | 39 | 67 | 12.0 | 28.0 | 0.07 | 0.71 | 0.71 | 97 | 984.3 |
| 20260504011556 | 38 | 41 | 12.0 | 29.0 | 0.08 | 0.70 | 0.70 | 97 | 984.9 |
| 20260504010105 | 38 | 79 | 8.0 | 23.0 | 0.09 | 0.69 | 0.69 | 97 | 986.1 |
| 20260504004611 | 39 | 41 | 9.0 | 21.0 | 0.10 | 0.66 | 0.66 | 97 | 987.6 |
| 20260504003058 | 39 | 170 | 12.0 | 26.0 | 0.15 | 0.64 | 0.64 | 98 | 987.8 |
| 20260504001609 | 38 | 57 | 14.0 | 25.0 | 0.18 | 0.62 | 0.62 | 97 | 988.9 |
| 20260504000136 | 38 | 74 | 17.0 | 32.0 | 0.19 | 0.60 | 0.60 | 98 | 989.6 |
| 20260503234559 | 38 | 14 | 17.0 | 30.0 | 0.18 | 0.56 | 0.56 | 98 | 990.1 |
| 20260503233057 | 38 | 37 | 15.0 | 25.0 | 0.15 | 0.49 | 0.49 | 98 | 991.3 |
| 20260503231558 | 37 | 28 | 12.0 | 27.0 | 0.13 | 0.44 | 0.44 | 98 | 992.6 |
| 20260503224555 | 37 | 34 | 13.0 | 23.0 | 0.13 | 0.37 | 0.37 | 97 | 994.4 |
| 20260503223057 | 36 | 339 | 11.0 | 21.0 | 0.12 | 0.34 | 0.34 | 97 | 995.5 |
| 20260503221558 | 36 | 34 | 8.0 | 20.0 | 0.14 | 0.31 | 0.31 | 97 | 996.0 |
| 20260503220118 | 36 | 70 | 6.0 | 16.0 | 0.15 | 0.28 | 0.28 | 97 | 996.3 |
| 20260503214558 | 36 | 72 | 9.0 | 18.0 | 0.12 | 0.24 | 0.24 | 97 | 996.6 |
| 20260503213058 | 35 | 38 | 12.0 | 25.0 | 0.10 | 0.22 | 0.22 | 97 | 997.1 |
| 20260503211559 | 35 | 37 | 14.0 | 25.0 | 0.05 | 0.17 | 0.17 | 97 | 997.1 |
| 20260503210057 | 35 | 51 | 8.0 | 24.0 | 0.02 | 0.13 | 0.13 | 96 | 998.2 |
| 20260503204603 | 35 | 38 | 10.0 | 26.0 | 0.02 | 0.12 | 0.12 | 96 | 998.8 |
| 20260503203059 | 36 | 41 | 9.0 | 27.0 | 0.04 | 0.12 | 0.12 | 96 | 999.9 |
| 20260503201555 | 36 | 95 | 14.0 | 27.0 | 0.04 | 0.12 | 0.12 | 96 | 999.6 |
| 20260503194602 | 37 | 14 | 12.0 | 23.0 | 0.09 | 0.10 | 0.10 | 95 | 1001.2 |
| 20260503193100 | 37 | 14 | 12.0 | 21.0 | 0.08 | 0.08 | 0.08 | 95 | 1001.8 |
| 20260503191556 | 38 | 64 | 12.0 | 24.0 | 0.08 | 0.08 | 0.08 | 94 | 1002.7 |
| 20260503190056 | 38 | 51 | 9.0 | 17.0 | 0.03 | 0.03 | 0.03 | 92 | 1003.9 |
| 20260503184606 | 39 | 70 | 10.0 | 18.0 | 0.01 | 0.01 | 0.01 | 89 | 1004.5 |
| 20260503183058 | 40 | 28 | 5.0 | 10.0 | 0.00 | 0.00 | 0.00 | 87 | 1005.6 |
| 20260503181602 | 41 | 14 | 7.0 | 13.0 | 0.00 | 0.00 | 0.00 | 85 | 1006.4 |
| 20260503180118 | 42 | 330 | 5.0 | 10.0 | 0.00 | 0.00 | 0.00 | 83 | 1007.2 |
| 20260503174556 | 43 | 83 | 5.0 | 17.0 | 0.00 | 0.00 | 0.00 | 80 | 1007.2 |
| 20260503173109 | 45 | 25 | 7.0 | 13.0 | 0.00 | 0.00 | 0.00 | 76 | 1007.9 |
| 20260503171556 | 46 | 29 | 6.0 | 12.0 | 0.00 | 0.00 | 0.00 | 74 | 1008.0 |
| 20260503170110 | 46 | 25 | 4.0 | 10.0 | 0.00 | 0.00 | 0.00 | 73 | 1008.2 |
| 20260503160114 | 45 | 28 | 4.0 | 8.0 | 0.00 | 0.00 | 0.00 | 77 | 1010.0 |
| 20260503110104 | 37 | 0 | 0.0 | 3.0 | 0.00 | 0.00 | 0.00 | 99 | 1014.7 |
| 20260503081556 | 29 | 303 | 1.0 | 3.0 | 0.00 | 0.00 | 0.00 | 98 | 1015.9 |
| 20260503071612 | 28 | 0 | 0.0 | 2.0 | 0.00 | 0.01 | 0.00 | 97 | 1016.1 |
| 20260503060114 | 29 | 0 | 1.0 | 3.0 | 0.00 | 0.14 | 0.00 | 97 | 1016.4 |
| 20260503054620 | 29 | 303 | 2.0 | 4.0 | 0.00 | 0.45 | 0.00 | 97 | 1016.2 |